Terminal Aerodrome Forecast
Issued by NWS Sterling, VA

Current Version | Previous Version | Graphics & Text | Print | Product List | Glossary On
Versions: 1 2 3 4 5 6 7 8 9 10 11 12 13 14 15 16 17 18 19 20
000
FTUS41 KLWX 251600 AAA
TAFDCA
TAF AMD
KDCA 251610Z 2516/2612 06008KT P6SM FEW045
     FM260000 11004KT P6SM FEW150=

USA.gov is the U.S. government's official web portal to all federal, state and local government web resources and services.